Biblioteca

Música » Lana Del Rey »

Diet Mountain Dew beclovespenguin marcou esta faixa como favorita

136 execuções | Ir para página da faixa

De Sábado 28 de maio de 2011 a Segunda 28 de maio de 2012 Todo o tempo

Faixas (136)
Faixa Álbum Duração Data
Diet Mountain Dew 3:43 Mai 27 2012, 18h15
Diet Mountain Dew 3:43 Mai 25 2012, 14h58
Diet Mountain Dew 3:43 Mai 24 2012, 4h29
Diet Mountain Dew 3:43 Mai 23 2012, 13h58
Diet Mountain Dew 3:43 Mai 23 2012, 12h51
Diet Mountain Dew 3:43 Mai 23 2012, 7h07
Diet Mountain Dew 3:43 Mai 23 2012, 4h47
Diet Mountain Dew 3:43 Mai 22 2012, 14h09
Diet Mountain Dew 3:43 Mai 22 2012, 13h42
Diet Mountain Dew 3:43 Mai 20 2012, 13h56
Diet Mountain Dew 3:43 Mai 20 2012, 11h51
Diet Mountain Dew 3:43 Mai 20 2012, 4h24
Diet Mountain Dew 3:43 Mai 16 2012, 13h55
Diet Mountain Dew 3:43 Mai 14 2012, 4h59
Diet Mountain Dew 3:43 Mai 14 2012, 3h30
Diet Mountain Dew 3:43 Mai 13 2012, 10h26
Diet Mountain Dew 3:43 Mai 13 2012, 9h53
Diet Mountain Dew 3:43 Mai 13 2012, 9h50
Diet Mountain Dew 3:43 Mai 11 2012, 13h34
Diet Mountain Dew 3:43 Mai 11 2012, 4h43
Diet Mountain Dew 3:43 Mai 10 2012, 16h33
Diet Mountain Dew 3:43 Mai 10 2012, 16h30
Diet Mountain Dew 3:43 Mai 10 2012, 16h26
Diet Mountain Dew 3:43 Mai 10 2012, 16h14
Diet Mountain Dew 3:43 Mai 10 2012, 15h30
Diet Mountain Dew 3:43 Mai 7 2012, 9h00
Diet Mountain Dew 3:43 Mai 5 2012, 19h43
Diet Mountain Dew 3:43 Mai 5 2012, 19h43
Diet Mountain Dew 3:43 Mai 5 2012, 18h59
Diet Mountain Dew 3:43 Mai 4 2012, 4h28
Diet Mountain Dew 3:43 Mai 2 2012, 12h13
Diet Mountain Dew 3:43 Mai 1 2012, 0h31
Diet Mountain Dew 3:43 Mai 1 2012, 0h31
Diet Mountain Dew 3:43 Abr 24 2012, 4h49
Diet Mountain Dew 3:43 Abr 24 2012, 4h09
Diet Mountain Dew 3:43 Abr 24 2012, 3h29
Diet Mountain Dew 3:43 Mar 20 2012, 13h55
Diet Mountain Dew 3:43 Mar 9 2012, 2h54
Diet Mountain Dew 3:43 Mar 9 2012, 2h54
Diet Mountain Dew 3:43 Mar 9 2012, 2h54
Diet Mountain Dew 3:43 Mar 9 2012, 2h54
Diet Mountain Dew 3:43 Mar 9 2012, 2h54
Diet Mountain Dew 3:43 Mar 9 2012, 2h48
Diet Mountain Dew 3:43 Mar 9 2012, 2h43
Diet Mountain Dew 3:43 Mar 9 2012, 2h37
Diet Mountain Dew 3:43 Mar 8 2012, 7h29
Diet Mountain Dew 3:43 Mar 8 2012, 7h23
Diet Mountain Dew 3:43 Mar 8 2012, 7h17
Diet Mountain Dew 3:43 Mar 7 2012, 4h57
Diet Mountain Dew 3:43 Mar 7 2012, 4h57
Diet Mountain Dew 3:43 Mar 7 2012, 4h57
Diet Mountain Dew 3:43 Mar 7 2012, 4h57
Diet Mountain Dew 3:43 Mar 7 2012, 4h57
Diet Mountain Dew 3:43 Mar 7 2012, 4h57
Diet Mountain Dew 3:43 Mar 2 2012, 12h24
Diet Mountain Dew 3:43 Mar 2 2012, 12h18
Diet Mountain Dew 3:43 Mar 2 2012, 12h12
Diet Mountain Dew 3:43 Fev 24 2012, 9h54
Diet Mountain Dew 3:43 Fev 24 2012, 9h38
Diet Mountain Dew 3:43 Fev 23 2012, 11h39
Diet Mountain Dew 3:43 Fev 23 2012, 11h23
Diet Mountain Dew 3:43 Fev 16 2012, 12h24
Diet Mountain Dew 3:43 Fev 11 2012, 5h25
Diet Mountain Dew 3:43 Fev 11 2012, 5h19
Diet Mountain Dew 3:43 Fev 11 2012, 5h14
Diet Mountain Dew 3:43 Fev 10 2012, 12h17
Diet Mountain Dew 3:43 Fev 2 2012, 23h36
Diet Mountain Dew 3:43 Fev 2 2012, 4h07
Diet Mountain Dew 3:43 Jan 29 2012, 7h42
Diet Mountain Dew 3:43 Jan 29 2012, 7h36
Diet Mountain Dew 3:43 Jan 25 2012, 18h10
Diet Mountain Dew 3:43 Jan 24 2012, 18h03
Diet Mountain Dew 3:43 Jan 24 2012, 15h21
Diet Mountain Dew 3:43 Jan 24 2012, 15h19
Diet Mountain Dew 3:43 Jan 20 2012, 17h18
Diet Mountain Dew 3:43 Jan 18 2012, 5h03
Diet Mountain Dew 3:43 Jan 17 2012, 3h47
Diet Mountain Dew 3:43 Jan 17 2012, 3h47
Diet Mountain Dew 3:43 Jan 16 2012, 14h08
Diet Mountain Dew 3:43 Jan 16 2012, 6h01
Diet Mountain Dew 3:43 Jan 16 2012, 5h55
Diet Mountain Dew 3:43 Jan 16 2012, 5h49
Diet Mountain Dew 3:43 Jan 16 2012, 3h16
Diet Mountain Dew 3:43 Jan 16 2012, 3h11
Diet Mountain Dew 3:43 Jan 16 2012, 3h04
Diet Mountain Dew 3:43 Jan 16 2012, 2h58
Diet Mountain Dew 3:43 Jan 16 2012, 2h53
Diet Mountain Dew 3:43 Jan 16 2012, 2h47
Diet Mountain Dew 3:43 Jan 16 2012, 2h41
Diet Mountain Dew 3:43 Jan 16 2012, 2h35
Diet Mountain Dew 3:43 Jan 15 2012, 21h16
Diet Mountain Dew 3:43 Jan 15 2012, 21h10
Diet Mountain Dew 3:43 Jan 15 2012, 21h05
Diet Mountain Dew 3:43 Jan 15 2012, 20h59
Diet Mountain Dew 3:43 Jan 15 2012, 20h54
Diet Mountain Dew 3:43 Jan 15 2012, 20h48
Diet Mountain Dew 3:43 Jan 15 2012, 13h03
Diet Mountain Dew 3:43 Jan 15 2012, 12h58
Diet Mountain Dew 3:43 Jan 15 2012, 12h47
Diet Mountain Dew 3:43 Jan 15 2012, 12h42
Diet Mountain Dew 3:43 Jan 15 2012, 12h27
Diet Mountain Dew 3:43 Jan 15 2012, 12h21
Diet Mountain Dew 3:43 Jan 15 2012, 12h16
Diet Mountain Dew 3:43 Jan 15 2012, 12h10
Diet Mountain Dew 3:43 Jan 15 2012, 12h04
Diet Mountain Dew 3:43 Jan 15 2012, 11h59
Diet Mountain Dew 3:43 Jan 15 2012, 11h27
Diet Mountain Dew 3:43 Jan 15 2012, 11h21
Diet Mountain Dew 3:43 Jan 15 2012, 11h16
Diet Mountain Dew 3:43 Jan 15 2012, 11h10
Diet Mountain Dew 3:43 Jan 15 2012, 11h05
Diet Mountain Dew 3:43 Jan 15 2012, 10h59
Diet Mountain Dew 3:43 Jan 15 2012, 2h00
Diet Mountain Dew 3:43 Jan 15 2012, 1h54
Diet Mountain Dew 3:43 Jan 15 2012, 1h49
Diet Mountain Dew 3:43 Jan 15 2012, 1h43
Diet Mountain Dew 3:43 Jan 15 2012, 1h38
Diet Mountain Dew 3:43 Jan 15 2012, 1h32
Diet Mountain Dew 3:43 Jan 15 2012, 1h26
Diet Mountain Dew 3:43 Jan 15 2012, 1h21
Diet Mountain Dew 3:43 Jan 15 2012, 1h15
Diet Mountain Dew 3:43 Jan 15 2012, 0h48
Diet Mountain Dew 3:43 Jan 15 2012, 0h43
Diet Mountain Dew 3:43 Jan 15 2012, 0h37
Diet Mountain Dew 3:43 Jan 15 2012, 0h32
Diet Mountain Dew 3:43 Jan 14 2012, 23h37
Diet Mountain Dew 3:43 Jan 14 2012, 23h31
Diet Mountain Dew 3:43 Jan 14 2012, 23h24
Diet Mountain Dew 3:43 Jan 14 2012, 23h19
Diet Mountain Dew 3:43 Jan 14 2012, 23h13
Diet Mountain Dew 3:43 Jan 14 2012, 23h08
Diet Mountain Dew 3:43 Jan 14 2012, 23h02
Diet Mountain Dew 3:43 Jan 14 2012, 22h56
Diet Mountain Dew 3:43 Jan 14 2012, 22h51
Diet Mountain Dew 3:43 Jan 14 2012, 22h45
Diet Mountain Dew 3:43 Jan 14 2012, 22h34